Zurück zum Katalog

USA 402

AktivMilitärVLEO
NORAD 61023·PAYLOAD·🇺🇸 United States

Gestartet Sep 6, 2024 von Vandenberg Space Force Base

Loading…

Nächste Überflüge (nächste 24 Stunden)

TLE

VeraltetSource: Mike McCants

Epoche: Aug 23, 2026, 23:49 UTC

1 61023U 24160C   26235.99285214 0.00000000  00000-0  00000-0 0    06
2 61023  70.0200 201.8497 0002000 105.1940 254.8060 14.96713293    06

Verfolge USA 402 in Echtzeit mit AllMySat

Download on the App Store